Location: Sternwarte ZA, Rosenfeld-Brittheim
(48.2889°N, 8.6789°E)
Time: 21:54:18
(UTC+02:00)

ISS - Pass Details

Date: 21 September 2019
Orbit: 411 x 421 km, 51.6° (Epoch: 19 September)

Event Time Altitude Azimuth Distance (km) Brightness Sun altitude
Rises 22:10:11 0° 259° (W) 2,340 0.6 -26.5°
Reaches altitude 10° 22:12:18 10° 263° (W) 1,480 -0.4 -26.8°
Enters shadow 22:13:12 17° 266° (W) 1,118 -1.1 -26.9°
